Location: *
(50.6089°N, 2.2719°E)
Time: 12:35:47
(UTC+00:00)

Cosmos 1535 Rocket - Pass Details

Date: 18 October 2019
Orbit: 947 x 1005 km, 83.0° (Epoch: 19 November)

Event Time Altitude Azimuth Distance (km) Brightness Sun altitude
Rises 17:44:48 0° 350° (N) 3,689 7.6 -8.9°
Reaches altitude 10° 17:47:21 10° 352° (N) 2,728 6.9 -9.3°
Maximum altitude 17:53:36 80° 79° (E) 983 4.4 -10.3°
Drops below altitude 10° 17:59:44 10° 167° (SSE) 2,676 6.7 -11.2°
Sets 18:02:12 0° 169° (S) 3,612 7.4 -11.6°
